User: anonymous   Login
Location: ??????????
(48.5701°N, 37.7703°E)
Time: 13:33:33
(UTC+00:00)
Language:

SeaSat 1 - Orbit

View from above orbital plane
View from above orbital plane
View from above satellite
View from above satellite

Ground track
Ground track

The orbit data is extracted from the following two-line orbital elements,

1 10967U 78064A   20262.65515484 -.00000071 +00000-0 +19452-4 0  9992
2 10967 108.0076 265.7461 0003012 271.8796 088.2004 14.43835514218049
Epoch (UTC): 18 September 2020 15:43:25
Eccentricity: 0.0003012
inclination: 108.0076°
perigee height: 744 km
apogee height: 748 km
right ascension of ascending node: 265.7461°
argument of perigee: 271.8796°
revolutions per day: 14.43835514
mean anomaly at epoch: 88.2004°
orbit number at epoch: 21804

The dashed part of the orbit path shows where the satellite is in the earth's shadow,  

DLR